Satellite-Ground Cal/Val Site Overpasses Predictions

Prediction of Satellite NPP Overpassing Cal/Val Site: Antarctic Dome C

Ground Cal/Val Site Location: Latitude: -75.10, Longitude: 123.35; Satellite-Ground Site NADIR distance within 100 km.

Table of predicted overpasses for the next 14.0 days since TLE Epoch: 6/1/2012
Interval Starting Time Ending Time Minimum Distance Time Minimum Distance (km)
1 06/02/2012 15:06:11 06/02/2012 15:06:20 06/02/2012 15:06:15 94.86
2 06/03/2012 14:47:10 06/03/2012 14:47:39 06/03/2012 14:47:25 16.61
3 06/05/2012 07:29:58 06/05/2012 07:30:27 06/05/2012 07:30:12 2.24
4 06/08/2012 14:53:20 06/08/2012 14:53:49 06/08/2012 14:53:35 19.63
5 06/09/2012 14:34:38 06/09/2012 14:34:52 06/09/2012 14:34:45 87.42
6 06/10/2012 07:36:10 06/10/2012 07:36:37 06/10/2012 07:36:23 37.08
7 06/11/2012 07:17:22 06/11/2012 07:17:42 06/11/2012 07:17:32 73.07
8 06/13/2012 14:59:34 06/13/2012 14:59:58 06/13/2012 14:59:46 56.28
9 06/14/2012 14:40:43 06/14/2012 14:41:08 06/14/2012 14:40:56 52.98


NCC Satellite Cal/Val Overpasses Prediction Service
